GW3595 Weather Reports


Display with metric or nautical units.
time (UTC)temp
F
wind
direction
speed
MPH
gust
MPH
rain 1hr
in
rain 24hr
in
rain mn
in
humidity
%
barometer
mb
20260506085704 70 144 5.0 9.0 0.00 0.00 0.00 48 1008.4
20260506084704 70 207 3.0 8.0 0.00 0.00 0.00 49 1008.6
20260506084205 70 244 3.0 13.0 0.00 0.00 0.00 49 1008.5
20260506083204 68 101 4.0 13.0 0.00 0.00 0.00 53 1008.6
20260506082705 68 219 4.0 10.0 0.00 0.00 0.00 52 1008.6
20260506082205 68 200 4.0 10.0 0.00 0.00 0.00 51 1008.5
20260506081704 68 247 4.0 9.0 0.00 0.00 0.00 52 1008.6
20260506081205 68 181 3.0 8.0 0.00 0.00 0.00 52 1008.6
20260506080704 68 215 2.0 6.0 0.00 0.00 0.00 53 1008.6
20260506080205 68 223 2.0 6.0 0.00 0.00 0.00 53 1008.7
20260506072205 64 157 1.0 3.0 0.00 0.00 0.00 57 1008.8
20260506071221 64 136 1.0 5.0 0.00 0.00 0.00 57 1008.8
20260506070704 62 130 1.0 7.0 0.00 0.00 0.00 60 1008.8
20260506070205 63 109 2.0 7.0 0.00 0.00 0.00 60 1008.9
20260506062204 57 156 2.0 5.0 0.00 0.00 0.00 69 1009.2
20260506061705 57 155 2.0 5.0 0.00 0.00 0.00 68 1009.3
20260506061204 57 175 3.0 6.0 0.00 0.00 0.00 69 1009.2
20260506060705 57 159 3.0 6.0 0.00 0.00 0.00 70 1009.1
20260506060205 56 161 3.0 6.0 0.00 0.00 0.00 70 1009.2
20260506051205 51 120 2.0 5.0 0.00 0.00 0.00 80 1009.5
20260506050705 51 0 2.0 4.0 0.00 0.00 0.00 81 1009.6
20260506050204 51 116 2.0 4.0 0.00 0.00 0.00 83 1009.8
20260506044204 49 0 3.0 5.0 0.00 0.00 0.00 86 1009.5
20260506043704 48 0 3.0 4.0 0.00 0.00 0.00 87 1009.4
20260506042704 47 0 1.0 3.0 0.00 0.00 0.00 88 1009.5
20260506042204 46 0 1.0 2.0 0.00 0.00 0.00 89 1009.5
20260506041704 46 0 0.0 3.0 0.00 0.00 0.00 88 1009.4
20260506041204 46 0 1.0 3.0 0.00 0.00 0.00 88 1009.3
20260506040705 46 0 1.0 3.0 0.00 0.00 0.00 87 1009.3
20260506040204 46 0 1.0 2.0 0.00 0.00 0.00 87 1009.3
20260506035705 46 0 1.0 3.0 0.00 0.00 0.00 87 1009.2
20260506035204 45 0 0.0 3.0 0.00 0.00 0.00 88 1009.2
20260506034705 46 0 1.0 3.0 0.00 0.00 0.00 87 1009.2
20260506033704 45 0 1.0 3.0 0.00 0.00 0.00 87 1009.2
20260506032205 46 0 0.0 2.0 0.00 0.00 0.00 87 1009.2
20260506031705 45 0 0.0 2.0 0.00 0.00 0.00 87 1009.2
20260506031204 46 0 0.0 2.0 0.00 0.00 0.00 87 1009.2
20260506030205 46 0 0.0 1.0 0.00 0.00 0.00 86 1009.1
20260506025704 46 0 0.0 2.0 0.00 0.00 0.00 87 1009.1
20260506025205 46 0 0.0 3.0 0.00 0.00 0.00 87 1009.1
20260506024205 46 0 1.0 3.0 0.00 0.00 0.00 86 1009.1
20260506023204 46 0 0.0 3.0 0.00 0.00 0.00 85 1009.0
20260506022705 47 0 1.0 4.0 0.00 0.00 0.00 85 1008.9
20260506022204 47 0 1.0 4.0 0.00 0.00 0.00 85 1008.9
20260506021704 47 0 2.0 4.0 0.00 0.00 0.00 85 1008.8
20260506021205 47 0 1.0 3.0 0.00 0.00 0.00 85 1008.8
20260506020704 47 0 0.0 2.0 0.00 0.00 0.00 85 1008.8
20260506020205 47 0 0.0 1.0 0.00 0.00 0.00 85 1008.8
20260506015704 47 0 0.0 2.0 0.00 0.00 0.00 85 1008.8
20260506015205 47 0 0.0 2.0 0.00 0.00 0.00 84 1008.8
20260506014704 47 0 1.0 2.0 0.00 0.00 0.00 84 1008.7
20260506014205 47 0 0.0 2.0 0.00 0.00 0.00 84 1008.6
20260506013705 47 0 0.0 1.0 0.00 0.00 0.00 84 1008.6
20260506013204 47 0 0.0 1.0 0.00 0.00 0.00 84 1008.6
20260506012705 48 0 0.0 1.0 0.00 0.00 0.00 84 1008.5
20260506011704 48 0 0.0 1.0 0.00 0.00 0.00 83 1008.4
20260506011205 48 0 0.0 3.0 0.00 0.00 0.00 83 1008.4
20260506010205 48 0 0.0 3.0 0.00 0.00 0.00 83 1008.3
20260506005704 48 0 0.0 2.0 0.00 0.00 0.00 82 1008.3
20260506005205 48 0 0.0 2.0 0.00 0.00 0.00 82 1008.3
20260506004704 49 0 0.0 2.0 0.00 0.00 0.00 81 1008.3
20260506004205 49 0 1.0 2.0 0.00 0.00 0.00 80 1008.3
20260506003705 49 0 1.0 5.0 0.00 0.00 0.00 79 1008.3
20260506003205 50 0 1.0 5.0 0.00 0.00 0.00 79 1008.3
20260506002723 50 0 1.0 4.0 0.00 0.00 0.00 80 1008.2
20260506002204 50 0 1.0 3.0 0.00 0.00 0.00 80 1008.2
20260506001704 50 0 1.0 3.0 0.00 0.00 0.00 80 1008.1
20260506000704 50 0 0.0 4.0 0.00 0.00 0.00 79 1008.2
20260506000205 50 0 1.0 5.0 0.00 0.00 0.00 78 1008.2
20260505235205 51 0 2.0 5.0 0.00 0.00 0.00 76 1008.2
20260505234705 52 0 1.0 5.0 0.00 0.00 0.00 76 1008.1
20260505233705 52 0 1.0 5.0 0.00 0.00 0.00 77 1008.2
20260505233204 51 0 0.0 2.0 0.00 0.00 0.00 78 1008.1
20260505232705 51 0 0.0 1.0 0.00 0.00 0.00 77 1008.1
20260505232205 52 0 0.0 4.0 0.00 0.00 0.00 76 1008.3
20260505231704 52 0 0.0 5.0 0.00 0.00 0.00 76 1008.2
20260505231205 52 0 1.0 5.0 0.00 0.00 0.00 75 1008.2
20260505230704 53 0 1.0 5.0 0.00 0.00 0.00 75 1008.2
20260505230205 53 0 2.0 5.0 0.00 0.00 0.00 76 1008.2
20260505225704 52 0 1.0 5.0 0.00 0.00 0.00 77 1008.1
20260505225205 52 0 1.0 5.0 0.00 0.00 0.00 76 1008.1
20260505224705 52 0 1.0 4.0 0.00 0.00 0.00 76 1008.1
20260505223704 54 0 1.0 4.0 0.00 0.00 0.00 74 1008.1
20260505223204 54 0 1.0 4.0 0.00 0.00 0.00 74 1008.1
20260505222704 54 0 1.0 2.0 0.00 0.00 0.00 73 1008.1
20260505221704 54 0 1.0 2.0 0.00 0.00 0.00 74 1008.1
20260505221205 54 0 1.0 2.0 0.00 0.00 0.00 74 1008.0
20260505220704 54 0 1.0 2.0 0.00 0.00 0.00 73 1008.0
20260505220205 54 0 1.0 2.0 0.00 0.00 0.00 73 1007.9
20260505215704 55 0 1.0 2.0 0.00 0.00 0.00 72 1007.9
20260505215205 55 0 1.0 2.0 0.00 0.00 0.00 71 1008.0
20260505214205 55 0 0.0 2.0 0.00 0.00 0.00 71 1007.9
20260505213704 56 0 0.0 4.0 0.00 0.00 0.00 70 1007.7
20260505213205 56 0 1.0 4.0 0.00 0.00 0.00 68 1007.7
20260505211705 58 0 2.0 3.0 0.00 0.00 0.00 66 1007.6
20260505211204 58 0 1.0 4.0 0.00 0.00 0.00 66 1007.6
20260505210705 58 0 1.0 4.0 0.00 0.00 0.00 66 1007.7
20260505210204 58 0 2.0 3.0 0.00 0.00 0.00 66 1007.7
20260505205704 57 0 2.0 3.0 0.00 0.00 0.00 68 1007.7
20260505204704 57 0 1.0 2.0 0.00 0.00 0.00 67 1007.7
20260505204205 58 0 0.0 2.0 0.00 0.00 0.00 67 1007.7
20260505203704 58 0 0.0 2.0 0.00 0.00 0.00 67 1007.7
20260505203205 58 0 1.0 3.0 0.00 0.00 0.00 66 1007.7
20260505202205 59 0 1.0 2.0 0.00 0.00 0.00 64 1007.9
20260505201704 59 0 0.0 3.0 0.00 0.00 0.00 64 1007.7
20260505201204 60 0 1.0 5.0 0.00 0.00 0.00 62 1007.9
20260505200704 60 0 1.0 5.0 0.00 0.00 0.00 61 1007.9
20260505200205 61 0 2.0 5.0 0.00 0.00 0.00 60 1007.9
20260505195704 62 0 3.0 6.0 0.00 0.00 0.00 59 1007.9
20260505195205 62 0 3.0 8.0 0.00 0.00 0.00 58 1008.0
20260505194704 62 0 3.0 8.0 0.00 0.00 0.00 59 1007.9
20260505194205 62 0 3.0 12.0 0.00 0.00 0.00 58 1007.9
20260505193704 62 0 4.0 12.0 0.00 0.00 0.00 58 1008.0
20260505193205 62 0 4.0 12.0 0.00 0.00 0.00 58 1007.9
20260505192704 62 0 4.0 12.0 0.00 0.00 0.00 58 1007.9
20260505192205 62 0 5.0 12.0 0.00 0.00 0.00 57 1007.7
20260505191705 62 0 5.0 12.0 0.00 0.00 0.00 58 1008.0
20260505191205 62 0 4.0 8.0 0.00 0.00 0.00 58 1007.7
20260505190704 62 0 4.0 6.0 0.00 0.00 0.00 58 1007.9
20260505190204 62 0 3.0 6.0 0.00 0.00 0.00 58 1007.7
20260505185704 62 0 2.0 8.0 0.00 0.00 0.00 58 1007.7
20260505185204 62 0 3.0 8.0 0.00 0.00 0.00 58 1007.7
20260505184704 63 0 3.0 9.0 0.00 0.00 0.00 57 1007.7
20260505184205 63 0 4.0 9.0 0.00 0.00 0.00 56 1007.6
20260505183704 63 0 4.0 8.0 0.00 0.00 0.00 56 1007.6
20260505183205 63 0 3.0 8.0 0.00 0.00 0.00 56 1007.5
20260505181704 64 0 3.0 8.0 0.00 0.00 0.00 56 1007.2
20260505181205 64 0 3.0 10.0 0.00 0.00 0.00 56 1007.2
20260505180705 64 0 4.0 11.0 0.00 0.00 0.00 55 1007.3
20260505180204 65 0 5.0 11.0 0.00 0.00 0.00 54 1007.4
20260505175705 65 0 5.0 10.0 0.00 0.00 0.00 54 1007.4
20260505175204 65 0 4.0 11.0 0.00 0.00 0.00 55 1007.5
20260505174705 65 238 5.0 11.0 0.00 0.00 0.00 55 1007.4
20260505174205 65 234 6.0 12.0 0.00 0.00 0.00 54 1007.4
20260505173705 65 205 6.0 13.0 0.00 0.00 0.00 54 1007.3
20260505173204 65 246 6.0 13.0 0.00 0.00 0.00 54 1007.6
20260505172704 65 203 5.0 12.0 0.00 0.00 0.00 54 1007.5
20260505171704 66 216 4.0 9.0 0.00 0.00 0.00 53 1007.4
20260505171205 66 224 4.0 10.0 0.00 0.00 0.00 53 1007.3
20260505170704 67 210 4.0 10.0 0.00 0.00 0.00 52 1007.3
20260505170205 67 223 5.0 10.0 0.00 0.00 0.00 51 1007.5
20260505165704 67 215 5.0 13.0 0.00 0.00 0.00 50 1007.4
20260505165205 68 248 5.0 13.0 0.00 0.00 0.00 49 1007.4
20260505164705 68 227 6.0 15.0 0.00 0.00 0.00 49 1007.4
20260505164205 68 250 5.0 15.0 0.00 0.00 0.00 49 1007.5
20260505163705 68 0 5.0 15.0 0.00 0.00 0.00 50 1007.5
20260505162705 69 194 6.0 14.0 0.00 0.00 0.00 49 1007.4
20260505161704 69 192 5.0 12.0 0.00 0.00 0.00 49 1007.5
20260505161205 69 0 5.0 12.0 0.00 0.00 0.00 49 1007.6
20260505160704 69 0 5.0 14.0 0.00 0.00 0.00 48 1007.7
20260505160205 70 183 6.0 14.0 0.00 0.00 0.00 48 1007.9
20260505153205 70 222 7.0 13.0 0.00 0.00 0.00 45 1007.9
20260505152204 70 156 6.0 12.0 0.00 0.00 0.00 46 1007.9
20260505151704 70 211 6.0 12.0 0.00 0.00 0.00 46 1008.0
20260505151205 70 236 5.0 12.0 0.00 0.00 0.00 46 1008.0
20260505150704 70 163 6.0 12.0 0.00 0.00 0.00 46 1007.9
20260505150205 70 151 5.0 12.0 0.00 0.00 0.00 46 1008.1
20260505140205 71 219 7.0 15.0 0.00 0.00 0.00 44 1008.3
20260505130229 73 0 8.0 15.0 0.00 0.00 0.00 38 1008.2
20260505123704 75 205 7.0 11.0 0.00 0.00 0.00 34 1008.1
20260505123205 75 187 5.0 11.0 0.00 0.00 0.00 35 1008.1
20260505122205 75 159 5.0 15.0 0.00 0.00 0.00 36 1008.3
20260505121704 74 178 6.0 20.0 0.00 0.00 0.00 36 1008.3
20260505121205 75 180 7.0 20.0 0.00 0.00 0.00 36 1008.4
20260505120705 76 274 7.0 20.0 0.00 0.00 0.00 35 1008.4
20260505120204 76 198 7.0 13.0 0.00 0.00 0.00 34 1008.4
20260505115705 76 242 6.0 14.0 0.00 0.00 0.00 36 1008.3
20260505114705 75 206 7.0 16.0 0.00 0.00 0.00 35 1008.1
20260505114204 76 196 7.0 16.0 0.00 0.00 0.00 35 1008.3
20260505113704 76 273 7.0 14.0 0.00 0.00 0.00 35 1008.3
20260505113205 76 265 7.0 19.0 0.00 0.00 0.00 34 1008.3
20260505112704 77 271 7.0 19.0 0.00 0.00 0.00 33 1008.2
20260505112205 77 237 8.0 19.0 0.00 0.00 0.00 34 1008.2
20260505111704 78 212 6.0 18.0 0.00 0.00 0.00 33 1008.3
20260505111205 77 209 6.0 16.0 0.00 0.00 0.00 35 1008.3
20260505110704 76 169 8.0 16.0 0.00 0.00 0.00 34 1008.3
20260505110205 76 143 7.0 16.0 0.00 0.00 0.00 34 1008.3
20260505102205 76 167 7.0 19.0 0.00 0.00 0.00 31 1008.7
20260505101704 76 132 6.0 19.0 0.00 0.00 0.00 30 1008.7
20260505101205 76 182 8.0 19.0 0.00 0.00 0.00 30 1008.5
20260505100724 76 225 7.0 19.0 0.00 0.00 0.00 31 1008.6
20260505100205 76 224 7.0 18.0 0.00 0.00 0.00 32 1008.7
20260505095704 75 157 8.0 18.0 0.00 0.00 0.00 31 1008.7
20260505095205 76 168 7.0 15.0 0.00 0.00 0.00 31 1008.7
20260505094704 75 153 8.0 19.0 0.00 0.00 0.00 31 1008.7
20260505094205 75 186 8.0 19.0 0.00 0.00 0.00 31 1008.8
20260505093205 75 192 7.0 17.0 0.00 0.00 0.00 31 1008.8
20260505092704 75 182 6.0 17.0 0.00 0.00 0.00 31 1008.8
20260505092205 75 138 6.0 17.0 0.00 0.00 0.00 34 1008.7
20260505091705 75 155 5.0 12.0 0.00 0.00 0.00 34 1008.7
20260505091205 74 201 6.0 13.0 0.00 0.00 0.00 33 1008.8
20260505090704 75 132 7.0 15.0 0.00 0.00 0.00 33 1008.9